Tracking 19575 objects as of 20-Feb-2019
HD Live streaming from Space Station
objects crossing your sky now

COSMOS 1317 DEB

Track COSMOS 1317 DEB now!


NORAD ID: 14736
Int'l Code: 1981-108G
Perigee: 7,398.4 km
Apogee: 33,047.9 km
Inclination: 71.5 °
Period: 719.3 minutes
Semi major axis: 26594 km
RCS: 3.4522 m2 (large)
Launch date: October 31, 1981
Source: Commonwealth of Independent States (former USSR) (CIS)
Launch site: PLESETSK MISSILE AND SPACE COMPLEX (PKMTR)

Note: This is SATELLITE DEBRIS
aabbcc
Your satellite tracking list
Your tracking list is empty




NASA's NSSDC Master Catalog

Two Line Element Set (TLE):
1 14736U 81108G   19049.94126503  .00000112  00000-0  00000+0 0  9995
2 14736  71.4949 219.2787 4822384  39.7866 314.5043  2.00181388179731
Source of the keplerian elements: AFSPC